Regional Weather Roundup
Issued by NWS Green Bay, WI

Home | Current Version | Previous Version | Text Only | Print | Product List | Glossary On
Versions: 1 2 3 4 5 6 7 8 9 10 11 12 13 14 15 16 17 18 19 20 21 22 23 24 25 26 27 28 29 30 31 32 33 34 35 36 37 38 39 40 41 42 43 44 45 46 47 48 49 50
000
ASUS43 KGRB 222001
RWRGRB

NORTH-CENTRAL AND NORTHEAST WISCONSIN REGIONAL WEATHER ROUNDUP
NATIONAL WEATHER SERVICE GREEN BAY WI
300 PM CDT SUN OCT 22 2017

WIZ005-009-010>012-018-019-222100-
NORTH CENTRAL WISCONSIN

CITY           SKY/WX    TMP DP  RH WIND       PRES   REMARKS
IRONWOOD       PTSUNNY   51  37  58 SW9       29.89F
MANITOWISH WTR NOT AVBL
ARBOR VITAE    NOT AVBL
EAGLE RIVER    NOT AVBL
LAND O LAKES   CLOUDY    49  41  76 SW6       29.92F
RHINELANDER    CLOUDY    49  44  83 W8        29.95R
PHILLIPS       SUNNY     49  41  72 W3        29.93S
ANTIGO         NOT AVBL
TOMAHAWK       CLOUDY    49  41  74 CALM      29.95R
MERRILL        CLOUDY    50  44  80 SW3       29.97R
$$

WIZ013-073-222100-
NORTHEAST WISCONSIN

CITY           SKY/WX    TMP DP  RH WIND       PRES   REMARKS
IRON MOUNTAIN  LGT RAIN  50  45  83 W5        29.91S
MARINETTE      LGT RAIN  52  50  93 SW3       29.96S
$$

WIZ017-030-035>037-045-222100-
CENTRAL WISCONSIN

CITY           SKY/WX    TMP DP  RH WIND       PRES   REMARKS
MEDFORD        NOT AVBL
WAUSAU         CLOUDY    50  43  77 W6        29.96R
MOSINEE        CLOUDY    48  46  93 SW3       29.99R
MARSHFIELD     CLOUDY    51  43  74 W5        29.97R
WISC RAPIDS    LGT RAIN  51  48  89 W5        30.00R
STEVENS POINT  NOT AVBL
WAUPACA        NOT AVBL
SHAWANO        LGT RAIN  52  48  84 W6        29.97R
CLINTONVILLE   NOT AVBL
WAUTOMA        LGT RAIN N/A N/A N/A W6        30.01R
$$

WIZ038-039-048-051-222100-
FOX VALLEY

CITY           SKY/WX    TMP DP  RH WIND       PRES   REMARKS
NWS GREEN BAY  CLOUDY    53  51  93 CALM      29.96F
APPLETON       LGT RAIN  52  48  87 CALM      29.96R
OSHKOSH        LGT RAIN  52  49  89 W3        29.97S
FOND DU LAC    HVY RAIN  52  47  83 CALM      29.98F
$$

WIZ022-050-052-222100-
EAST CENTRAL WISCONSIN

CITY           SKY/WX    TMP DP  RH WIND       PRES   REMARKS
EPHRAIM        RAIN      50  48  92 NW6       29.94S
WASHINGTON ISL LGT RAIN  51  49  90 NW8       29.95R
STURGEON BAY   CLOUDY    51  49  92 NW6       29.96S
MANITOWOC      CLOUDY    52  50  93 NW5       29.98R
SHEBOYGAN      LGT RAIN  52  50  93 NW7       29.97S
$$

LMZ563-521-522-541>543-222100-
LAKESHORE

STATION/POSITION TIME  TEMP    WIND        PRES    VSBY  WAVE
                       AIR SEA DIR/SP/G                  HT/PER
                 (UTC) (F)     (DEG/KT/KT) (MB)    (MI)  (FT/S)
SHEBOYGAN LKSHOR 1900   51     330/ 14/ 18 1014.7R
KEWAUNEE LKSHORE 1930   52     310/  3/  7 1013.7F
NORTHPORT PIER   1940   54     290/  7/ 10 1014.2R
N MID LAKE BUOY  1850   54 58  290/ 23/ 27 1012.8R         7/ 7
S GREEN BAY BUOY 1930   53 58  250/  8/ 12 1014.3R
SISTER BAY LKSHO 1904   51     330/ 15/ 17   N/A
MENOMINEE LKSHOR 1930   52     260/  2/  5 1013.9R
$$



USA.gov is the U.S. government's official web portal to all federal, state and local government web resources and services.